Gage, OK

7:29 AM CST on February 24, 2017 (GMT -0600)
Gage

Weather History for KGAG - December, 2013

Change the Weather History Date:

Sunday, December 22, 2013

  Actual Average Record
Temperature  
Mean Temperature 22 °F -  
Max Temperature 32 °F 47 °F 78 °F (1969)
Min Temperature 12 °F 20 °F -12 °F (1989)
Degree Days  
Heating Degree Days 43    
Moisture  
Dew Point 14 °F    
Average Humidity 76    
Maximum Humidity 92    
Minimum Humidity 54    
Precipitation  
Precipitation 0.00 in - - ()
Sea Level Pressure  
Sea Level Pressure 30.21 in    
Wind  
Wind Speed 8 mph (NW)    
Max Wind Speed 13 mph    
Max Gust Speed -    
Visibility 10 miles    
Events      
Averages and records for this station are not official NWS values.
T = Trace of Precipitation, MM = Missing Value Source: NWS Daily Summary

Daily Weather History Graph

Daily Weather History Graph

Search for Another Location

Airport or City:

Trip Planner

Search our weather history database for the weather conditions in past years. The results will help you decide how hot, cold, wet, or windy it might be!

Date:

Astronomy

Dec. 22, 2013 Rise Set
Actual Time 7:47 AM CST 5:28 PM CST
Civil Twilight 7:18 AM CST 5:57 PM CST
Nautical Twilight 6:46 AM CST 6:29 PM CST
Astronomical Twilight 6:14 AM CST 7:00 PM CST
Moon 10:34 PM CST (12/22) 10:52 AM CST (12/22)
Length of Visible Light 10h 38m
Length of Day
9h 41m
Waning Gibbous, 76% of the Moon is Illuminated
Dec 22
Waning Gibbous
Dec 25
Last Quarter
Jan 1
New
Jan 7
First Quarter
Jan 15
Full

Hourly Weather History & Observations

Time (CST) Temp. Windchill Dew Point Humidity Pressure Visibility Wind Dir Wind Speed Gust Speed Precip Events Conditions
12:53 AM 19.9 °F 9.3 °F 16.0 °F 85% 29.94 in 10.0 mi NNW 9.2 mph - N/A   Clear
1:53 AM 14.0 °F 5.1 °F 12.0 °F 92% 29.96 in 10.0 mi WNW 5.8 mph - N/A   Clear
2:53 AM 17.1 °F 7.6 °F 14.0 °F 88% 29.99 in 10.0 mi NW 6.9 mph - N/A   Clear
3:53 AM 16.0 °F 6.3 °F 12.0 °F 84% 30.02 in 10.0 mi NNW 6.9 mph - N/A   Clear
4:53 AM 17.1 °F 6.6 °F 10.9 °F 77% 30.05 in 10.0 mi NNW 8.1 mph - N/A   Clear
5:53 AM 17.1 °F 7.6 °F 12.0 °F 81% 30.08 in 10.0 mi NNW 6.9 mph - N/A   Scattered Clouds
6:53 AM 19.0 °F 7.5 °F 12.9 °F 77% 30.14 in 10.0 mi North 10.4 mph - N/A   Clear
7:53 AM 19.0 °F 9.0 °F 12.9 °F 77% 30.19 in 10.0 mi NNW 8.1 mph - N/A   Clear
8:53 AM 19.9 °F 11.1 °F 14.0 °F 78% 30.20 in 10.0 mi NW 6.9 mph - N/A   Mostly Cloudy
9:53 AM 21.9 °F 9.8 °F 15.1 °F 75% 30.25 in 10.0 mi NNW 12.7 mph - N/A   Clear
10:53 AM 25.0 °F 15.5 °F 15.1 °F 66% 30.27 in 10.0 mi NNW 9.2 mph - N/A   Clear
11:53 AM 27.0 °F 16.7 °F 16.0 °F 63% 30.28 in 10.0 mi North 11.5 mph - N/A   Clear
12:53 PM 28.0 °F 18.6 °F 17.1 °F 63% 30.26 in 10.0 mi NW 10.4 mph - N/A   Clear
1:53 PM 30.0 °F 20.5 °F 18.0 °F 61% 30.26 in 10.0 mi NW 11.5 mph - N/A   Clear
2:53 PM 32.0 °F 23.6 °F 18.0 °F 56% 30.25 in 10.0 mi NW 10.4 mph - N/A   Clear
3:53 PM 32.0 °F 24.2 °F 17.1 °F 54% 30.27 in 10.0 mi NW 9.2 mph - N/A   Clear
4:53 PM 28.9 °F 22.8 °F 18.0 °F 64% 30.29 in 10.0 mi West 5.8 mph - N/A   Clear
5:53 PM 19.0 °F 10.0 °F 14.0 °F 81% 30.31 in 10.0 mi SW 6.9 mph - N/A   Clear
6:53 PM 17.1 °F 7.6 °F 12.9 °F 84% 30.32 in 10.0 mi SSW 6.9 mph - N/A   Clear
7:53 PM 17.1 °F - 14.0 °F 88% 30.34 in 10.0 mi Calm Calm - N/A   Clear
8:53 PM 14.0 °F 3.9 °F 10.9 °F 88% 30.35 in 10.0 mi South 6.9 mph - N/A   Clear
9:53 PM 12.0 °F 2.7 °F 8.1 °F 84% 30.37 in 10.0 mi West 5.8 mph - N/A   Clear
10:53 PM 14.0 °F 8.2 °F 10.0 °F 84% 30.36 in 10.0 mi South 3.5 mph - N/A   Clear
11:53 PM 12.9 °F - 9.0 °F 84% 30.36 in 10.0 mi Calm Calm - N/A   Clear